IABS R/B

基本信息
目录编号:
26054
目录名称:
IABS R/B
国际标识:
2000-001C
轨道中心:
EARTH
物体状态:
在轨
发射日期:
2000-01-21 UTC
国别:
美国 (US)
轨道信息
数据来源: 国际轨道数据
星历时间: 2026-07-13T23:13:35+0800
半长轴: 41912.475km
偏心率: 0.0027338
轨道倾角: 14.115°
近地点辐角: 335.272°
升交点赤经: 359.361°
平近点角: 24.624°
近地点: 35419.757km
远地点: 35648.919km
周期: 1423.229分钟
每日圈数: 1.011784
详细信息
发射场:
AFETR
轨道高度:
MEO
数据来源:
AOE Integration Group
参考系:
TEME
时间系统:
UTC
历元类型:
SGP4
2D轨道图
3D轨道图
轨道高度分析图
轨道倾角分析图
轨道综合分析图
查看轨道综合分析图